Regional Weather Roundup
Issued by NWS Upton, NY

Current Version | Previous Version | Text Only | Print | Product List | Glossary On
Versions: 1 2 3 4 5 6 7 8 9 10 11 12 13 14 15 16 17 18 19 20 21 22 23 24 25 26 27 28
000 ASUS41 KOKX 200008 RWROKX REGIONAL WEATHER ROUNDUP NATIONAL WEATHER SERVICE NEW YORK NY 700 PM EST SUN FEB 19 2017 NOTE: "FAIR" INDICATES FEW OR NO CLOUDS BELOW 12,000 FEET WITH NO SIGNIFICANT WEATHER AND/OR OBSTRUCTIONS TO VISIBILITY. NYZ071-072-176-178-NJZ106-104-200100- NEW YORK CITY METRO AREA CITY SKY/WX TMP DP RH WIND PRES REMARKS Central Park CLEAR 61 29 29 CALM 29.91R Wall St Helipt NOT AVBL LaGuardia APRT CLEAR 56 32 40 NW7 29.88R Kennedy INTL CLEAR 61 30 31 NW10 29.89R Breezy Point N/A 59 N/A N/A W5 N/A Newark/Liberty CLEAR 63 30 28 NW6 29.88R Teterboro CLEAR 59 30 33 CALM 29.88R $$ NYZ177-179-078>081-200100- LONG ISLAND NEW YORK CITY SKY/WX TMP DP RH WIND PRES REMARKS Jones Beach N/A 59 N/A N/A W6 N/A Matinecock PT N/A 59 N/A N/A NW9 N/A Farmingdale CLEAR 58 30 34 N6 29.88R MacArthur/ISP PTCLDY 56 30 37 NW10 29.87R Shirley CLEAR 53 32 44 CALM 29.88R Westhampton CLEAR 40 29 64 SW5 29.88R Southampton NOT AVBL Bridgehampton NOT AVBL East Hampton N/A 44 32 63 CALM 29.85R Montauk N/A 53 34 48 W5 29.86R $$ NYZ052-065-067-200100- HUDSON VALLEY CITY SKY/WX TMP DP RH WIND PRES REMARKS White Plains CLEAR 51 28 41 NW6 29.88R Newburgh CLEAR 52 30 43 NW8 29.90R Montgomery CLEAR 41 30 65 CALM 29.88R Poughkeepsie CLEAR 50 27 40 W6 29.88R Albany PTCLDY 48 31 51 W12 29.91R $$ NJZ001-105-106-008-010-013-015-019>022-104-200100- NEW JERSEY CITY SKY/WX TMP DP RH WIND PRES REMARKS Newark/Liberty CLEAR 63 30 28 NW6 29.88R Teterboro CLEAR 59 30 33 CALM 29.88R Caldwell CLEAR 51 31 46 CALM 29.89R Somerville CLEAR 52 34 50 CALM 29.88R Linden NOT AVBL Sussex CLEAR 43 33 68 CALM 29.90R Andover N/A 40 34 79 CALM 29.90R Trenton CLEAR 60 33 36 W3 29.90R Millville CLEAR 47 36 65 VRB3 29.91R Atlantic City CLEAR 59 35 40 W6 29.90R Wrightstown CLEAR 58 35 41 NW6 29.88R Toms River CLEAR 48 35 60 W3 29.90R Belmar CLEAR 55 31 39 NW5 29.90R $$ PAZ047>061-062-071-200100- EASTERN PENNSYLVANIA CITY SKY/WX TMP DP RH WIND PRES REMARKS Philadelphia PTCLDY 65 33 30 W8 29.92R Allentown CLEAR 54 34 46 CALM 29.90R Scranton CLEAR 56 30 37 NW9 29.92R $$ CTZ002-004>006-009-010-012-RIZ004-006-007-MAZ004-011-015-200100- SOUTHERN NEW ENGLAND IN CT CITY SKY/WX TMP DP RH WIND PRES REMARKS Bradley INTL CLEAR 51 30 44 NW17G24 29.88R Hartford CLEAR 52 29 41 N9 29.88R Danbury CLEAR 42 29 59 CALM 29.89R Wtrbury/Oxford CLEAR 52 27 37 N7 29.90R Bridgeport CLEAR 54 30 40 W5 29.87R Meriden CLEAR 45 29 53 NW3 29.88R New Haven CLEAR 54 35 48 N8 29.87R Chester N/A 54 28 37 NW9G16 29.87R Groton CLEAR 51 31 46 N8 29.86R Wilimantic CLEAR 54 29 38 NW14G24 29.87R IN RI CITY SKY/WX TMP DP RH WIND PRES REMARKS Providence PTCLDY 53 28 38 NW10 29.84R Block Island PTCLDY 49 36 61 W10 29.85R Westerly CLEAR 50 34 54 NW6 29.87R IN MA CITY SKY/WX TMP DP RH WIND PRES REMARKS Boston MOCLDY 53 32 44 N5 29.81R Worcester CLEAR 46 28 49 W9 29.84R Westfield CLEAR 50 31 48 NW9 29.87R Provincetown CLEAR 45 36 70 NW6 29.81R Nantucket CLEAR 47 36 65 W14 29.81R $$ ANZ330-335-338-340-345-350-353-355-200100- COASTAL MARINE OBSERVATIONS STATION/POSITION TIME SKY/WX TEMP WIND PRES VSBY WAVE AIR SEA DIR/SP/G HT/PER (UTC) (F) (DEG/KT/KT) (MB) (MI) (FT/S) NY HARB ENTRANCE 2250 53 44 290/ 10/ 12 1011.1 3/ 7 20 S FIRE ISLAND 2350 50 41 270/ 10/ 12 1011.8 3/ 8 GREAT SOUTH BAY NOT AVBL 23 SSW MONTAUK P 2250 48 44 1010.8 4/ 8 15 E BARNEGAT LI 2330 42 N/A 3/ 6 HUDSON CANYON 2250 51 1011.3 3/ 7 KINGS POINT 2330 53 39 1011.5 EXECUTION ROCKS NOT AVBL CENTRAL LI SOUND 2253 45 250/ 8/ 8 N/A 1 EASTERN LI SOUND NOT AVBL ROBBINS REEF 2330 62 330/ 5/ 7 1012.0 $$ >>>>>>>>>>>>>>>>>>>>>>>>>>>> KEY <<<<<<<<<<<<<<<<<<<<<<<<<<< > < > SKY/WX - Sky Condition/Present Weather < > TMP - Temperature in Fahrenheit < > DP - Dew Point in Fahrenheit < > RH - Relative Humidity in Percent < > WIND - Direction (from) and Speed in MPH < > PRES - Mean Sea Level Pressure (inches of Hg) < > WCI - Wind Chill Index < > VSB - VISIBILITY IN MILES < > HX - HEAT INDEX < > TC - TEMPERATURE IN CELSIUS < > VRB - VARIABLE WIND DIRECTION < > < >>>>>>>>>>>>>>>>>>>>>>>>>>>> KEY <<<<<<<<<<<<<<<<<<<<<<<<<<<

USA.gov is the U.S. government's official web portal to all federal, state and local government web resources and services.